N5CNB Weather Reports


Display with metric or nautical units.
time (UTC)temp
F
wind
direction
speed
MPH
gust
MPH
rain 1hr
in
rain 24hr
in
rain mn
in
humidity
%
barometer
mb
20260502223010 74 103 3.0 12.0 0.00 0.20 0.00 48 1019.2
20260502221513 74 3 4.0 16.0 0.00 0.20 0.00 47 1019.2
20260502220015 73 51 7.0 14.0 0.00 0.21 0.00 50 1019.2
20260502214507 73 51 7.0 15.0 0.00 0.27 0.00 50 1019.5
20260502213009 73 91 7.0 14.0 0.00 0.28 0.00 49 1019.6
20260502211523 73 69 6.0 12.0 0.00 0.28 0.00 51 1019.9
20260502210014 74 58 5.0 12.0 0.00 0.28 0.00 49 1020.1
20260502203007 74 101 3.0 10.0 0.00 0.29 0.00 52 1020.3
20260502201511 73 23 6.0 14.0 0.00 0.30 0.00 50 1020.4
20260502200014 72 345 3.0 10.0 0.00 0.34 0.00 50 1020.6
20260502194515 72 65 4.0 12.0 0.00 0.35 0.00 54 1020.7
20260502193019 72 2 5.0 14.0 0.00 0.36 0.00 54 1020.7
20260502191514 72 349 6.0 15.0 0.00 0.39 0.00 52 1020.8
20260502190019 71 25 4.0 13.0 0.00 0.47 0.00 56 1020.9
20260502184516 70 27 7.0 15.0 0.00 0.57 0.00 56 1021.1
20260502183016 70 27 5.0 13.0 0.00 0.58 0.00 57 1021.3
20260502163015 66 360 5.0 17.0 0.00 0.68 0.00 63 1022.2
20260502161518 65 54 8.0 16.0 0.00 0.71 0.00 66 1022.1
20260502151515 63 347 6.0 13.0 0.00 0.88 0.00 71 1021.6
20260502123021 51 13 1.0 3.0 0.00 2.04 0.00 91 1020.3
20260502121527 50 356 0.0 1.0 0.00 2.16 0.00 91 1020.0
20260502114515 49 36 0.0 0.0 0.00 2.76 0.00 91 1019.7
20260502113022 49 36 0.0 0.0 0.00 2.94 0.00 91 1019.5
20260502111525 49 3 0.0 4.0 0.00 3.05 0.00 91 1019.3
20260502110025 49 9 1.0 5.0 0.00 3.14 0.00 91 1018.8
20260502104516 50 358 0.0 4.0 0.00 3.34 0.00 91 1018.6
20260502101520 50 4 1.0 4.0 0.00 3.82 0.00 91 1018.5
20260502091518 50 10 2.0 7.0 0.00 4.04 0.00 90 1017.6
20260502071525 52 3 2.0 9.0 0.00 5.02 0.00 90 1016.9
20260502070022 51 350 1.0 6.0 0.00 5.04 0.00 90 1017.0
20260502064529 51 40 0.0 5.0 0.00 5.08 0.00 90 1017.0
20260502063010 52 355 2.0 8.0 0.00 5.08 0.00 89 1017.2
20260502061511 52 10 3.0 11.0 0.00 5.08 0.00 89 1017.3
20260502060016 53 356 4.0 13.0 0.00 5.08 0.00 89 1017.2
20260502054519 53 340 5.0 13.0 0.00 5.08 0.00 89 1017.3
20260502053004 54 39 1.0 9.0 0.00 5.08 0.00 89 1017.2
20260502051507 54 352 5.0 14.0 0.00 5.08 0.00 89 1017.2
20260502050011 54 10 5.0 16.0 0.00 5.08 0.00 89 1017.0
20260502044519 54 11 4.0 8.0 0.00 5.08 5.08 89 1016.9
20260502043022 54 350 3.0 11.0 0.00 5.08 5.08 89 1016.7
20260502041505 54 358 4.0 15.0 0.00 5.08 5.08 89 1016.7
20260502040016 54 64 5.0 16.0 0.00 5.08 5.08 90 1016.6
20260502034516 54 359 4.0 11.0 0.00 5.08 5.08 90 1016.5
20260502033021 54 34 4.0 12.0 0.00 5.08 5.08 90 1016.2
20260502031522 54 342 3.0 10.0 0.00 5.08 5.08 90 1016.0
20260502030007 54 16 6.0 16.0 0.00 5.08 5.08 90 1016.2
20260502024511 55 356 7.0 14.0 0.00 5.08 5.08 90 1016.1
20260502023017 55 48 7.0 19.0 0.00 5.08 5.08 91 1015.7
20260502021520 55 354 4.0 14.0 0.00 5.08 5.08 91 1015.4
20260502020024 55 356 9.0 15.0 0.00 5.08 5.08 91 1014.8
20260502014507 56 341 7.0 14.0 0.00 5.08 5.08 92 1014.2
20260502013014 56 6 5.0 12.0 0.02 5.08 5.08 92 1013.8
20260501233025 58 93 4.0 8.0 0.09 4.96 4.96 92 1013.6
20260501231515 58 12 2.0 8.0 0.06 4.94 4.94 92 1013.6
20260501230015 58 358 5.0 10.0 0.07 4.94 4.94 92 1012.3
20260501224521 58 65 4.0 13.0 0.12 4.92 4.92 92 1012.2